Aérodrome :
LOGIN :

S'inscrire | Disclaimer

   EN    FR    IT 

 










Légende :    VFR   VFR Marginal   IFR   IFR Intensif   IFR Très Intensif
Visi : 
Plafond : 
>= 8 km
>= 3000ft
5 à 8 km
1000 à 3000 ft
1500m à 5 km
500 à 1000 ft
800 à 1500m
200 à 500 ft
< 800m
< 200 ft
Symboles :   Orages  Brouillard  Fortes neiges  Fortes précipitations  Vent > 20 kt
SIGMETs :   Divers  Orages  Givrage  Turbulence  Onde Orograph.  Cendres Volcan.







- Altitude de l'aérodrome : 56 ft


LPOV - Ovar Air Base

DERNIER METAR :
  • 231600Z 34015G26KT 9999 FEW006 21/16 Q1021

METARs EXPIRÉS :
  • 231500Z 35017G29KT CAVOK 21/16 Q1022
  • 231400Z 35019KT CAVOK 21/15 Q1022

TAF TAF LPOV
Valide du 23 à 12h jusqu'au 24 à 12h UTC


231105Z 2312/2412 34015KT CAVOK
TEMPO 2312/2322 35018G28KT
BECMG 2322/2324 36008KT 9999 SCT007
PROB40 2400/2409 BKN002
BECMG 2410/2412 34015KT CAVOK
Pas de NOTAMs connus pour ce terrain.



MET'MAP, la Météo Aéronautique d'un coup d'oeil ! - Copyright ORBIFLY Décembre 2007 - Disclaimer

ORBIFLY MET'MAP TEAM :

Programmation & Développement : Alexandra Zaïnal
Conception & Développement : Baudouin d'Aumeries
Co-Programmation & Développement : Marc-Olivier Méhu
Soutien technique & logistique : Manuel Goepfert

Contact : metmap@orbifly.com




SOURCES & CREDITS :

   NOAA